DW4988 Weather Reports


Display with metric or nautical units.
time (UTC)temp
F
wind
direction
speed
MPH
gust
MPH
rain 1hr
in
rain 24hr
in
rain mn
in
humidity
%
barometer
mb
20260502151545 62 188 6.0 12.0 0.00 0.00 0.00 31 1021.9
20260502123046 45 207 3.0 6.0 0.00 0.00 0.00 62 1021.4
20260502121542 45 207 3.0 6.0 0.00 0.00 0.00 63 1021.4
20260502114601 46 189 2.0 4.0 0.00 0.00 0.00 60 1021.3
20260502113044 45 203 2.0 5.0 0.00 0.00 0.00 56 1021.4
20260502111548 45 204 1.0 4.0 0.00 0.00 0.00 54 1021.3
20260502110043 45 207 2.0 6.0 0.00 0.00 0.00 53 1021.3
20260502104543 45 202 1.0 4.0 0.00 0.00 0.00 53 1021.4
20260502103041 45 193 1.0 5.0 0.00 0.00 0.00 53 1021.3
20260502101559 45 182 1.0 4.0 0.00 0.00 0.00 52 1021.3
20260502100105 45 0 0.0 3.0 0.00 0.00 0.00 52 1021.2
20260502070047 49 211 1.0 4.0 0.00 0.00 0.00 42 1021.3
20260502064611 49 224 1.0 3.0 0.00 0.00 0.00 42 1021.3
20260502063047 49 173 0.0 2.0 0.00 0.00 0.00 40 1021.2
20260502061546 49 206 1.0 3.0 0.00 0.00 0.00 43 1021.2
20260502060047 50 212 1.0 6.0 0.00 0.00 0.00 42 1021.2
20260502054545 51 0 0.0 0.0 0.00 0.00 0.00 41 1021.1
20260502053045 51 0 0.0 0.0 0.00 0.00 0.00 39 1021.0
20260502051541 52 0 0.0 0.0 0.00 0.00 0.00 38 1021.1
20260502050047 53 0 0.0 1.0 0.00 0.00 0.00 38 1021.0
20260502044543 54 0 0.0 2.0 0.00 0.00 0.00 36 1021.1
20260502043111 54 122 1.0 4.0 0.00 0.00 0.00 33 1021.0
20260502041553 55 0 0.0 2.0 0.00 0.00 0.00 32 1021.0
20260502040058 55 281 1.0 3.0 0.00 0.00 0.00 32 1020.8
20260502034546 56 289 1.0 3.0 0.00 0.00 0.00 31 1020.6
20260502033045 57 0 0.0 3.0 0.00 0.00 0.00 31 1020.4
20260502031543 58 0 0.0 3.0 0.00 0.00 0.00 29 1020.0
20260502030048 58 283 2.0 7.0 0.00 0.00 0.00 28 1019.8
20260502024540 59 278 1.0 8.0 0.00 0.00 0.00 26 1019.6
20260502023043 60 288 3.0 8.0 0.00 0.00 0.00 24 1019.5
20260502021545 60 309 3.0 9.0 0.00 0.00 0.00 24 1019.4
20260502020041 61 293 6.0 11.0 0.00 0.00 0.00 23 1019.2
20260502014542 62 285 7.0 11.0 0.00 0.00 0.00 23 1019.1
20260502013049 62 294 5.0 14.0 0.00 0.00 0.00 23 1019.1
20260502011539 63 274 7.0 13.0 0.00 0.00 0.00 24 1019.0
20260502010043 64 219 7.0 14.0 0.00 0.00 0.00 23 1019.1
20260502004545 66 288 6.0 13.0 0.00 0.00 0.00 23 1019.1
20260502003040 66 286 6.0 13.0 0.00 0.00 0.00 24 1019.0
20260502001538 66 298 5.0 13.0 0.00 0.00 0.00 23 1019.1
20260502000044 67 311 6.0 15.0 0.00 0.00 0.00 23 1019.2
20260501234544 67 311 6.0 17.0 0.00 0.00 0.00 23 1019.2
20260501233041 67 296 8.0 15.0 0.00 0.00 0.00 22 1019.2
20260501231539 67 277 5.0 12.0 0.00 0.00 0.00 23 1019.3
20260501230045 67 327 7.0 14.0 0.00 0.00 0.00 22 1019.4
20260501224545 68 288 6.0 14.0 0.00 0.00 0.00 22 1019.5
20260501223044 68 344 6.0 14.0 0.00 0.00 0.00 22 1019.6
20260501221540 69 345 7.0 14.0 0.00 0.00 0.00 22 1019.6
20260501220046 68 305 6.0 13.0 0.00 0.00 0.00 21 1019.9
20260501214540 68 319 7.0 13.0 0.00 0.00 0.00 20 1020.0
20260501213048 68 332 7.0 13.0 0.00 0.00 0.00 22 1020.2
20260501211551 67 267 8.0 15.0 0.00 0.00 0.00 21 1020.2
20260501210044 68 304 8.0 14.0 0.00 0.00 0.00 23 1020.3
20260501204557 67 311 8.0 16.0 0.00 0.00 0.00 24 1020.4
20260501203038 67 326 6.0 14.0 0.00 0.00 0.00 23 1020.3
20260501201537 67 331 5.0 14.0 0.00 0.00 0.00 23 1020.2
20260501200045 67 360 4.0 13.0 0.00 0.00 0.00 23 1020.3
20260501194546 67 334 6.0 13.0 0.00 0.00 0.00 22 1020.5
20260501193042 66 273 5.0 16.0 0.00 0.00 0.00 22 1020.5
20260501191544 66 350 3.0 12.0 0.00 0.00 0.00 25 1020.7
20260501190044 66 313 4.0 13.0 0.00 0.00 0.00 23 1020.9
20260501184551 66 304 7.0 12.0 0.00 0.00 0.00 23 1020.9
20260501183050 65 9 5.0 13.0 0.00 0.00 0.00 23 1021.1
20260501181542 65 290 6.0 12.0 0.00 0.00 0.00 23 1021.1
20260501180042 65 50 6.0 13.0 0.00 0.00 0.00 25 1021.3
20260501174542 65 319 5.0 11.0 0.00 0.00 0.00 26 1021.3
20260501173049 65 308 4.0 13.0 0.00 0.00 0.00 24 1021.4
20260501171553 64 76 5.0 13.0 0.00 0.00 0.00 24 1021.4
20260501170042 63 22 3.0 10.0 0.00 0.00 0.00 24 1021.5
20260501164542 62 271 2.0 6.0 0.00 0.00 0.00 27 1021.5
20260501163040 62 5 4.0 10.0 0.00 0.00 0.00 27 1021.6
20260501161541 61 346 2.0 6.0 0.00 0.00 0.00 29 1021.5